カタログに戻る

THOR AGENA D R/B

運用中PO
NORAD 733·ROCKET BODY·🇺🇸 United States

打ち上げ Jan 19, 1964 から Vandenberg Space Force Base

Loading…

次のパス (今後24時間)

TLE

最新Source: Space-Track

元期: Sep 14, 2026, 12:47 UTC

1 00733U 64002A   26257.53293311  .00000101  00000-0  53142-4 0  9995
2 00733  99.1137 281.0786 0033761  69.3929 291.0870 14.34094379265368

AllMySatでTHOR AGENA D R/Bをリアルタイム追跡

Download on the App Store